map of HER home
HER - Airport
Location
City:  Heraklion, Krítí (Crete), Greece
Near (Alt.):Iraklion
Name:Nikos Kazantzakis
ICAO:LGIR
IATA:HER

Details
Type:Airport (Aerodrome, Airfield)
Use:Public/Civil, International (customs port of entry)
Latitude:35°20'23"N (35.339719)
Longitude:25°10'49"E (25.180297)
Datum:WGS 1984
Elevation:115 ft (35 m)
Variation:4.43°E (WMM2015 magnetic declination)
0.09° annual change
Runways:3
Longest:8800 × 148 ft (2682 × 45 m), paved

Time
Time Zone:UTC+2 (DST+3)
Local Time:

Weather
METAR:LGIR 210920Z 01004KT 9999 FEW020 27/21 Q1014 NOSIG
TAF:LGIR 210500Z 2106/2206 18005KT 9999 FEW018 SCT025
BECMG 2108/2110 32015KT
BECMG 2120/2122 VRB03KT

Related Locations
Nearby:
Farthest:TUB: 11548 mi / 18584 km
Tubuai, Tubuai Islands, Austral Islands, PF

Find:

   beyond  
but within

Other Information
Maps:
NOTAMs:
Links:
Sources:

  
  • flag of Greece
  

Sectional Chart

Flight Planning
at skyvector.com

Satellite Image

Google Maps Satellite view

 

Copyright © 2004-2018 Karl L. Swartz. All rights reserved.
The Great Circle Mapper name and logo are trademarks of the Great Circle Mapper.
All other trademarks mentioned herein belong to their respective owners.
Please see credits for attibutions and further copyright information.

  Follow gcmap on Facebook Follow gcmap on Twitter Follow gcmap on Google+ GCmap on LinkedIn

hCard Microformat

Geo Microformat